Regional Weather Roundup
Issued by NWS

Home | Current Version | Previous Version | Graphics & Text | Print | Product List | Glossary On
Versions: 1 2 3 4 5 6 7 8 9 10 11 12 13 14 15 16 17 18 19 20 21 22 23 24 25 26 27 28 29 30 31 32 33 34 35 36 37 38 39 40 41 42 43 44 45 46 47 48 49 50
000
ASUS43 KLOT 050901
RWRIL

ILLINOIS REGIONAL WEATHER ROUNDUP
NATIONAL WEATHER SERVICE CHICAGO/ROMEOVILLE IL
400 AM CDT SAT SEP 05 2015

NOTE: "FAIR" INDICATES FEW OR NO CLOUDS BELOW 12,000 FEET WITH NO
SIGNIFICANT WEATHER AND/OR OBSTRUCTIONS TO VISIBILITY.

* THESE STATIONS ARE NOT UNDER NWS QUALITY CONTROL. THEY ALSO MAY NOT
  REPORT WEATHER SUCH AS PRECIPITATION OR FOG.

ILZ001-002-007-009-015-016-024-051000-
NORTHWEST ILLINOIS

CITY           SKY/WX    TMP DP  RH WIND       PRES   REMARKS
MOLINE         MOCLDY    76  68  76 CALM      30.02R
STERLING*      PTCLDY    70  70 100 E3        30.03R
$$

ILZ003-004-008-010-011-017-018-051000-
NORTH CENTRAL ILLINOIS

CITY           SKY/WX    TMP DP  RH WIND       PRES   REMARKS
ROCKFORD       MOCLDY    69  66  90 S3        30.06R
FREEPORT*      PTCLDY    66  65  97 CALM      30.06S FOG
$$

ILZ005-006-012>014-019>023-051000-
NORTHEAST ILLINOIS

CITY           SKY/WX    TMP DP  RH WIND       PRES   REMARKS
CHICAGO-OHARE  PTCLDY    70  67  90 CALM      30.05S
CHICAGO-MIDWAY PTCLDY    74  68  81 CALM      30.06R
AURORA         MOCLDY    68  66  93 NE3       30.06S FOG
LANSING*       CLOUDY    67  67  98 CALM      30.07R FOG
WAUKEGAN       PTCLDY    65  65 100 CALM      30.06R
DUPAGE AIRPORT PTCLDY    69  65  86 CALM      30.05S
WHEELING       NOT AVBL
NORTHERLY ISL    N/A     71  68  90 CALM        N/A
$$

LMZ740>746-051000-
SOUTHERN LAKE MICHIGAN

STATION/POSITION SKY/WX   TEMP    WIND        PRES    VSBY  WAVE
                          AIR SEA DIR/SP/G                  HT/PER
                          (F)     (DEG/KT/KT) (MB)    (MI)  (FT/S)
SOUTHERN BUOY              69 71   80/  4/  4 1017.6R
WILMETTE HARBOR            71 71  280/  2/  2   N/A           1
HARRISON CRIB              71     100/  2/  2   N/A
BURNHAM HARBOR             71      CALM  /  2   N/A
CALUMET HARBOR             71     330/  1/  1   N/A
BURNS HARBOR               72     170/  1/  3 1018.3R
MICHIGAN CITY              70     130/  7/  8   N/A
MICHIGAN CITY 6N           72 74  180/  8/  8   N/A           1
ST. JOSEPH                 72 75  170/  6/  6   N/A           1
$$

ILZ025>027-034>036-040-047-049-050-058-095>099-051000-
WEST-CENTRAL ILLINOIS

CITY           SKY/WX    TMP DP  RH WIND       PRES   REMARKS
QUINCY         CLEAR     72  69  90 S5        30.03S
$$

ILZ028>032-037-038-041>044-048-051>054-059>061-051000-
CENTRAL ILLINOIS

CITY           SKY/WX    TMP DP  RH WIND       PRES   REMARKS
DECATUR        CLEAR     67  61  81 E7        30.07R
PEORIA         PTCLDY    75  67  76 SW3       30.05R
SPRINGFIELD    CLEAR     72  66  81 S5        30.05R
TAYLORVILLE    NOT AVBL
$$

ILZ033-039-045-046-055>057-062-063-051000-
EAST-CENTRAL ILLINOIS

CITY           SKY/WX    TMP DP  RH WIND       PRES   REMARKS
CHAMPAIGN      CLEAR     67  64  90 E5        30.08R
MATTOON        CLEAR     70  65  84 SE7       30.06R
$$

ILZ079-100>102-051000-
SOUTHWEST ILLINOIS

CITY           SKY/WX    TMP DP  RH WIND       PRES   REMARKS
BELLEVILLE     FOG       70  70 100 CALM      30.02S VSB 1/2
CAHOKIA*       CLEAR     74  69  85 SW3       30.03S
SPARTA*        CLEAR     70  68  95 CALM      30.05S
$$

ILZ064>066-069>071-074>076-080>082-084>086-088>090-092>094-051000-
SOUTH-CENTRAL ILLINOIS

CITY           SKY/WX    TMP DP  RH WIND       PRES   REMARKS
CARBONDALE     FOG       68  67  96 CALM      30.04R VSB 1/4
MT. VERNON     CLEAR     66  61  82 N3        30.05R
CENTRALIA*     CLEAR     69  68  99 E3        30.04R
$$

ILZ067-068-072-073-078-083-087-091-051000-
SOUTHEAST ILLINOIS

CITY           SKY/WX    TMP DP  RH WIND       PRES   REMARKS
LAWRENCEVILLE  CLEAR     71  68  90 E3        30.07R
FLORA*         CLEAR     67  66  94 CALM      30.06R
ROBINSON*      CLEAR     68  66  95 CALM      30.08R
$$

ABBREVIATIONS USED IN REMARKS
   TC - TEMPERATURE IN CELSIUS
  WCI - WIND CHILL INDEX
   HX - HEAT INDEX
  VSB - VISIBILITY
$$



USA.gov is the U.S. government's official web portal to all federal, state and local government web resources and services.